Flag for Poland Weather past 2 weeks in Tychy, Poland

Now
61 °F

Fog.


Feels Like: 61 °F
Forecast: 57 / 71 °F
Wind: 5 mph from North

Location: Katowice Airport

Current Time: Jul 11, 2014 at 5:57:16 AM

Latest Report: Jul 11, 2014 at 5:30 AM


Visibility: 2 mi

Pressure: 29.74 "Hg

Humidity: 100%

Dew point: 61 °F

Location of TychyLocation

Historic Weather in Tychy — Graph

°F

Tychy temperature yesterday

Maximum temperature yesterday: 70 °F (at 4:00 PM)
Minimum temperature yesterday: 57 °F (at 8:00 AM)
Average temperature yesterday: 63 °F

Past Weeks' High & Low Weather Summary

 TemperatureHumidityPressure
High86 °F (Jul 7, 2:30 PM)100% (Jun 26, 8:00 AM)30.24 "Hg (Jun 26, 8:00 AM)
Low39 °F (Jun 27, 5:00 AM)26% (Jul 4, 3:30 PM)29.65 "Hg (Jul 9, 3:00 AM)
Average64 °F74%29.95 "Hg
* Reported Jun 26 5:00 AM — Jul 11 5:00 AM, Tychy, Weather by CustomWeather, © 2014

Note: Actual official high and low records may vary slightly from our data, if they occured in-between our weather recording intervals... More about our weather records

Advertising

Tychy weather history for previous 24 hours

 ConditionsComfort  
Time TempWeatherWind HumidityBarometerVisibility
5:00 AM
Jul 11
61 °FFog.5 mph100%29.74 "Hg2 mi
4:30 AM61 °FFog.3 mph100%29.74 "Hg2 mi
4:00 AM61 °FFog.5 mph100%29.74 "Hg2 mi
3:30 AM61 °FPartly cloudy.1 mph100%29.74 "Hg4 mi
3:00 AM61 °FPassing clouds.3 mph100%29.74 "Hg4 mi
2:30 AM61 °FPassing clouds.3 mph100%29.74 "Hg4 mi
2:00 AM61 °FPassing clouds.2 mph100%29.77 "Hg4 mi
1:30 AM61 °FPassing clouds.2 mph94%29.77 "Hg4 mi
1:00 AM59 °FPassing clouds.1 mph100%29.77 "Hg4 mi
12:30 AM61 °FPassing clouds.2 mph94%29.77 "HgN/A
12:00 AM61 °FPassing clouds.2 mph94%29.77 "HgN/A
11:30 PM
Jul 10
61 °FClear.3 mph94%29.77 "Hg10 mi
11:00 PM61 °FClear.3 mph100%29.77 "Hg10 mi
10:30 PM63 °FClear.5 mph94%29.77 "Hg10 mi
10:00 PM63 °FClear.2 mph94%29.80 "Hg10 mi
9:30 PM63 °FSunny.3 mph94%29.80 "Hg10 mi
9:00 PM64 °FPassing clouds.3 mph88%29.77 "HgN/A
8:30 PM64 °FSunny.5 mph88%29.77 "Hg10 mi
8:00 PM66 °FPassing clouds.7 mph83%29.77 "HgN/A
7:30 PM68 °FPassing clouds.6 mph73%29.77 "HgN/A
7:00 PM68 °FScattered clouds.8 mph73%29.77 "HgN/A
6:30 PM70 °FPassing clouds.6 mph64%29.74 "HgN/A
6:00 PM70 °FPassing clouds.5 mph60%29.77 "HgN/A
5:30 PM70 °FPassing clouds.5 mph64%29.77 "HgN/A
5:00 PM70 °FScattered clouds.6 mph69%29.77 "HgN/A
4:30 PM70 °FPassing clouds.5 mph64%29.77 "HgN/A
4:00 PM70 °FPassing clouds.3 mph64%29.77 "HgN/A
3:30 PM68 °FPassing clouds.3 mph69%29.77 "HgN/A
3:00 PM68 °FScattered clouds.2 mph69%29.77 "HgN/A
2:30 PM66 °FBroken clouds.3 mph78%29.77 "HgN/A
2:00 PM66 °FBroken clouds.3 mph78%29.80 "HgN/A
1:30 PM63 °FBroken clouds.2 mph83%29.80 "HgN/A
1:00 PM61 °FBroken clouds.3 mph88%29.77 "HgN/A
12:30 PM63 °FBroken clouds.3 mph83%29.77 "HgN/A
12:00 PM61 °FBroken clouds.7 mph88%29.77 "Hg5 mi
11:30 AM59 °FBroken clouds.8 mph94%29.77 "Hg5 mi
11:00 AM59 °FBroken clouds.7 mph94%29.77 "Hg4 mi
10:30 AM59 °FBroken clouds.7 mph94%29.74 "Hg4 mi
10:00 AM59 °FFog.6 mph94%29.74 "Hg3 mi
9:30 AM59 °FBroken clouds.7 mph94%29.74 "Hg5 mi
9:00 AM59 °FLight rain. Fog.6 mph94%29.74 "Hg2 mi
8:30 AM59 °FLight rain. Fog.8 mph94%29.74 "Hg2 mi
8:00 AM57 °FLight rain. Fog.8 mph100%29.71 "Hg2 mi
7:30 AM59 °FLight rain. Fog.9 mph94%29.71 "Hg3 mi
7:00 AM59 °FFog.9 mph94%29.71 "Hg3 mi
6:30 AM59 °FFog.8 mph100%29.71 "Hg2 mi
6:00 AM59 °FLight rain. Fog.3 mph100%29.68 "Hg2 mi
5:30 AM59 °FSprinkles. Fog.5 mph100%29.68 "Hg3 mi
5:00 AM59 °FSprinkles. Fog.8 mph100%29.68 "Hg2 mi
Weather by CustomWeather, © 2014

See weather overviewHow to use our weather pages